Weather History for Sanford, ME

Change the Weather History Date:

Monday, February 10, 2014

  Actual Average Record
Temperature  
Mean Temperature 12 °F -  
Max Temperature 24 °F 31 °F 46 °F (2001)
Min Temperature -4 °F 11 °F -9 °F (2013)
Degree Days  
Heating Degree Days 53    
Moisture  
Dew Point 7 °F    
Average Humidity 64    
Maximum Humidity 100    
Minimum Humidity 39    
Precipitation  
Precipitation 0.04 in - - ()
Sea Level Pressure  
Sea Level Pressure 29.99 in    
Wind  
Wind Speed 5 mph (NW)    
Max Wind Speed 16 mph    
Max Gust Speed 21 mph    
Visibility 8 miles    
Events      
Averages and records for this station are not official NWS values.
T = Trace of Precipitation, MM = Missing Value Source: NWS Daily Summary

Daily Weather History Graph

Daily Weather History Graph

Search for Another Location

Airport:

Trip Planner

Search our weather history database for the weather conditions in past years. The results will help you decide how hot, cold, wet, or windy it might be!

Date:

Astronomy

Feb. 10, 2014 Rise Set
Actual Time 6:47 AM EST 5:06 PM EST
Civil Twilight 6:18 AM EST 5:36 PM EST
Nautical Twilight 5:44 AM EST 6:10 PM EST
Astronomical Twilight 5:11 AM EST 6:43 PM EST
Moon 1:30 PM EST (2/10) 3:41 AM EST (2/10)
Length of Visible Light 11h 18m
Length of Day
10h 18m
Waxing Gibbous, 84% of the Moon is Illuminated
Feb 10
Waxing Gibbous
Feb 14
Full
Feb 22
Last Quarter
Mar 1
New
Mar 8
First Quarter

Hourly Weather History & Observations

Time (EST) Temp. Windchill Dew Point Humidity Pressure Visibility Wind Dir Wind Speed Gust Speed Precip Events Conditions
12:15 AM 21.2 °F - 10.4 °F 63% 29.92 in 1.0 mi Calm Calm - N/A   Overcast
12:35 AM 21.2 °F - 21.2 °F 100% 29.92 in 1.2 mi Calm Calm - N/A   Overcast
12:55 AM 21.2 °F - 12.2 °F 68% 29.91 in 1.2 mi Calm Calm - N/A   Overcast
1:15 AM 21.2 °F 16.4 °F 15.8 °F 80% 29.90 in 1.8 mi North 3.5 mph - N/A   Overcast
1:35 AM 21.2 °F 16.4 °F 21.2 °F 100% 29.90 in 1.5 mi NNW 3.5 mph - N/A   Overcast
1:55 AM 21.2 °F 14.9 °F 10.4 °F 63% 29.89 in 1.5 mi NW 4.6 mph - N/A   Overcast
2:15 AM 21.2 °F 13.6 °F 21.2 °F 100% 29.89 in 2.0 mi North 5.8 mph - N/A   Overcast
2:35 AM 19.4 °F 10.4 °F 12.2 °F 74% 29.88 in 6.0 mi North 6.9 mph - N/A   Mostly Cloudy
2:55 AM 19.4 °F 10.4 °F 10.4 °F 68% 29.87 in 7.0 mi North 6.9 mph - N/A   Overcast
3:15 AM 19.4 °F 11.5 °F - N/A% 29.87 in 5.0 mi NNE 5.8 mph - N/A   Overcast
3:35 AM 19.4 °F 14.3 °F 15.8 °F 86% 29.87 in 4.0 mi North 3.5 mph - N/A   Overcast
3:55 AM 19.4 °F - 15.8 °F 86% 29.87 in 3.0 mi Calm Calm - N/A   Overcast
4:15 AM 19.4 °F 12.8 °F 15.8 °F 86% 29.87 in 4.0 mi NNW 4.6 mph - N/A   Overcast
4:35 AM 19.4 °F 12.8 °F 12.2 °F 74% 29.88 in 2.5 mi NNW 4.6 mph - N/A   Overcast
4:55 AM 19.4 °F 14.3 °F 19.4 °F 100% 29.88 in 2.0 mi NNW 3.5 mph - N/A   Overcast
5:15 AM 19.4 °F 14.3 °F 6.8 °F 58% 29.88 in 1.8 mi NNW 3.5 mph - N/A   Overcast
5:35 AM 19.4 °F 10.4 °F 19.4 °F 100% 29.89 in 1.8 mi NNW 6.9 mph - N/A   Overcast
5:55 AM 19.4 °F 10.4 °F 6.8 °F 58% 29.89 in 2.5 mi NNW 6.9 mph - N/A   Overcast
6:15 AM 19.4 °F 12.8 °F 17.6 °F 93% 29.89 in 3.0 mi NNW 4.6 mph - N/A   Overcast
6:35 AM 19.4 °F 10.4 °F 15.8 °F 86% 29.90 in 5.0 mi NNW 6.9 mph - N/A   Overcast
6:55 AM 19.4 °F 10.4 °F 6.8 °F 58% 29.90 in 2.0 mi NNW 6.9 mph - N/A   Overcast
7:15 AM 19.4 °F 12.8 °F 19.4 °F 100% 29.91 in 6.0 mi NNW 4.6 mph - N/A   Overcast
7:35 AM 19.4 °F 11.5 °F 5.0 °F 54% 29.92 in 8.0 mi NNW 5.8 mph - N/A   Mostly Cloudy
7:55 AM 19.4 °F 10.4 °F 15.8 °F 86% 29.94 in 10.0 mi North 6.9 mph - N/A   Mostly Cloudy
8:15 AM 17.6 °F 8.2 °F 15.8 °F 93% 29.94 in 9.0 mi NNW 6.9 mph - N/A   Scattered Clouds
8:35 AM 19.4 °F 9.5 °F 5.0 °F 54% 29.95 in 5.0 mi NNW 8.1 mph - N/A   Partly Cloudy
8:55 AM 19.4 °F 10.4 °F 17.6 °F 93% 29.95 in 10.0 mi North 6.9 mph - N/A   Clear
9:15 AM 21.2 °F 9.5 °F 10.4 °F 63% 29.96 in 10.0 mi North 11.5 mph - N/A   Clear
9:35 AM 21.2 °F 10.9 °F 12.2 °F 68% 29.96 in 10.0 mi North 9.2 mph - N/A   Unknown
9:55 AM 21.2 °F 13.6 °F 10.4 °F 63% 29.97 in 10.0 mi North 5.8 mph - N/A   Unknown
10:15 AM 21.2 °F 11.7 °F 10.4 °F 63% 29.98 in 10.0 mi WNW 8.1 mph - N/A   Overcast
10:35 AM 23.0 °F 13.9 °F 15.8 °F 74% 29.98 in 10.0 mi WNW 8.1 mph 16.1 mph N/A   Overcast
10:55 AM 23.0 °F 12.4 °F 6.8 °F 50% 29.99 in 10.0 mi NNW 10.4 mph - N/A   Overcast
11:15 AM 23.0 °F 13.9 °F 12.2 °F 63% 29.99 in 10.0 mi WNW 8.1 mph - N/A   Overcast
11:35 AM 24.8 °F 16.1 °F 12.2 °F 59% 29.99 in 10.0 mi NW 8.1 mph - N/A   Overcast
11:55 AM 24.8 °F 16.9 °F 5.0 °F 43% 29.98 in 10.0 mi NW 6.9 mph - N/A   Mostly Cloudy
12:15 PM 24.8 °F 14.0 °F 12.2 °F 59% 29.98 in 10.0 mi West 11.5 mph 17.3 mph N/A   Mostly Cloudy
12:35 PM 24.8 °F 13.4 °F 8.6 °F 50% 29.97 in 8.0 mi West 12.7 mph 19.6 mph 0.01 in   Overcast
12:55 PM 24.8 °F 12.4 °F 3.2 °F 40% 29.97 in 10.0 mi WNW 15.0 mph - 0.02 in   Overcast
1:15 PM 24.8 °F 14.0 °F 10.4 °F 54% 29.97 in 10.0 mi WNW 11.5 mph 17.3 mph 0.01 in   Mostly Cloudy
1:35 PM 24.8 °F 12.9 °F 10.4 °F 54% 29.97 in 10.0 mi NNW 13.8 mph 19.6 mph 0.01 in   Scattered Clouds
1:55 PM 24.8 °F 14.6 °F 3.2 °F 40% 29.98 in 10.0 mi NW 10.4 mph - 0.02 in   Partly Cloudy
2:15 PM 24.8 °F 16.9 °F 6.8 °F 46% 29.98 in 10.0 mi WNW 6.9 mph - N/A   Mostly Cloudy
2:35 PM 24.8 °F 14.6 °F 6.8 °F 46% 29.99 in 10.0 mi NW 10.4 mph 18.4 mph N/A   Overcast
2:55 PM 24.8 °F 11.9 °F 5.0 °F 43% 30.00 in 10.0 mi NW 16.1 mph 19.6 mph N/A   Mostly Cloudy
3:15 PM 24.8 °F 11.9 °F 3.2 °F 40% 30.00 in 10.0 mi West 16.1 mph 20.7 mph N/A   Scattered Clouds
3:35 PM 23.0 °F 10.6 °F 5.0 °F 46% 30.01 in 5.0 mi West 13.8 mph 19.6 mph N/A   Mostly Cloudy
3:55 PM 23.0 °F 11.7 °F 3.2 °F 43% 30.01 in 10.0 mi WNW 11.5 mph 18.4 mph N/A   Scattered Clouds
4:15 PM 23.0 °F 12.4 °F 1.4 °F 39% 30.02 in 10.0 mi West 10.4 mph 16.1 mph N/A   Clear
4:35 PM 21.2 °F 8.9 °F 3.2 °F 46% 30.03 in 10.0 mi WNW 12.7 mph - N/A   Partly Cloudy
4:55 PM 21.2 °F 9.5 °F 3.2 °F 46% 30.04 in 10.0 mi WNW 11.5 mph 16.1 mph N/A   Partly Cloudy
5:15 PM 21.2 °F 10.9 °F -0.4 °F 39% 30.05 in 10.0 mi WNW 9.2 mph - N/A   Mostly Cloudy
5:35 PM 21.2 °F 12.6 °F 3.2 °F 46% 30.07 in 10.0 mi WNW 6.9 mph - N/A   Mostly Cloudy
5:55 PM 19.4 °F 10.4 °F 1.4 °F 46% 30.08 in 10.0 mi West 6.9 mph - N/A   Partly Cloudy
6:15 PM 19.4 °F 10.4 °F -0.4 °F 42% 30.09 in 10.0 mi WNW 6.9 mph - N/A   Clear
6:35 PM 17.6 °F 8.2 °F 3.2 °F 53% 30.10 in 10.0 mi West 6.9 mph - N/A   Clear
6:55 PM 17.6 °F 8.2 °F -0.4 °F 45% 30.10 in 10.0 mi WNW 6.9 mph - N/A   Clear
7:15 PM 17.6 °F 9.3 °F 1.4 °F 49% 30.11 in 10.0 mi WNW 5.8 mph - N/A   Clear
7:35 PM 15.8 °F 7.2 °F 1.4 °F 53% 30.11 in 10.0 mi West 5.8 mph - N/A   Clear
7:55 PM 15.8 °F 6.1 °F -0.4 °F 49% 30.12 in 10.0 mi West 6.9 mph - N/A   Clear
8:15 PM 15.8 °F 5.1 °F 1.4 °F 53% 30.12 in 10.0 mi West 8.1 mph - N/A   Clear
8:35 PM 14.0 °F 3.9 °F -2.2 °F 49% 30.13 in 10.0 mi West 6.9 mph - N/A   Clear
8:55 PM 6.8 °F -2.0 °F -7.6 °F 52% 30.13 in 10.0 mi West 4.6 mph - N/A   Clear
9:15 PM -0.4 °F -13.4 °F -11.2 °F 60% 30.14 in 10.0 mi West 6.9 mph - N/A   Clear
9:35 PM -0.4 °F -13.4 °F -2.2 °F 92% 30.13 in 10.0 mi West 6.9 mph - N/A   Clear
9:55 PM -0.4 °F -10.4 °F -9.4 °F 66% 30.14 in 10.0 mi WNW 4.6 mph - N/A   Clear
10:15 PM 1.4 °F - -4.0 °F 78% 30.14 in 10.0 mi Calm Calm - N/A   Clear
10:35 PM 1.4 °F -8.3 °F -9.4 °F 61% 30.14 in 10.0 mi NW 4.6 mph - N/A   Clear
10:55 PM -0.4 °F -8.3 °F -9.4 °F 66% 30.14 in 10.0 mi NE 3.5 mph - N/A   Clear
11:15 PM 1.4 °F -9.9 °F -7.6 °F 66% 30.15 in 10.0 mi WNW 5.8 mph - N/A   Clear
11:35 PM -0.4 °F - -0.4 °F 100% 30.15 in 10.0 mi Calm Calm - N/A   Clear
11:55 PM -4.0 °F -12.4 °F -20.2 °F 46% 30.16 in 10.0 mi West 3.5 mph - N/A   Clear